Holdrege, NE

9:47 AM CST on November 12, 2019 (GMT -0600)
Brewster

Weather History for KHDE - October, 2019

Change the Weather History Date:

Sunday, October 20, 2019

  Actual Average Record
Temperature  
Mean Temperature 53 °F -  
Max Temperature 63 °F 64 °F 89 °F (1978)
Min Temperature 43 °F 36 °F 20 °F (1976)
Degree Days  
Heating Degree Days 12    
Growing Degree Days 3 (Base 50)    
Moisture  
Dew Point 35 °F    
Average Humidity 54    
Maximum Humidity 77    
Minimum Humidity 24    
Precipitation  
Precipitation 0.00 in - - ()
Sea Level Pressure  
Sea Level Pressure 29.61 in    
Wind  
Wind Speed 12 mph ()    
Max Wind Speed 24 mph    
Max Gust Speed 33 mph    
Visibility 10.0 miles    
Events      
Averages and records for this station are not official NWS values.
T = Trace of Precipitation, MM = Missing Value Source: Averaged Metar Reports

Daily Weather History Graph

Daily Weather History Graph

Search for Another Location

Airport or City:

Astronomy

Oct. 20, 2019 Rise Set
Actual Time 7:53 AM CDT 6:50 PM CDT
Civil Twilight 7:25 AM CDT 7:17 PM CDT
Nautical Twilight 6:54 AM CDT 7:49 PM CDT
Astronomical Twilight 6:22 AM CDT 8:21 PM CDT
Moon No Moon Rise 2:23 PM CDT (10/20)
Length of Visible Light 11h 52m
Length of Day
10h 56m
Waning Gibbous, 59% of the Moon is Illuminated
Oct 20
Waning Gibbous
Oct 21
Last Quarter
Oct 27
New
Nov 4
First Quarter
Nov 12
Full

Hourly Weather History & Observations

Time (CDT) Temp. Windchill Dew Point Humidity Pressure Visibility Wind Dir Wind Speed Gust Speed Precip Events Conditions
12:15 AM 46.0 °F 42.5 °F 36.9 °F 70% 29.73 in 10.0 mi SSE 6.9 mph - N/A   Clear
12:35 AM 44.6 °F 40.2 °F 36.5 °F 73% 29.72 in 10.0 mi SE 8.1 mph - N/A   Clear
12:55 AM 45.5 °F 41.3 °F 37.4 °F 73% 29.72 in 10.0 mi SSE 8.1 mph - N/A   Clear
1:15 AM 44.1 °F 40.8 °F 36.7 °F 75% 29.72 in 10.0 mi SSE 5.8 mph - N/A   Clear
1:35 AM 44.2 °F 41.0 °F 37.4 °F 77% 29.72 in 10.0 mi SSE 5.8 mph - N/A   Clear
1:55 AM 44.6 °F 40.7 °F 37.4 °F 76% 29.72 in 10.0 mi SSE 6.9 mph - N/A   Clear
2:15 AM 44.4 °F 40.5 °F 37.4 °F 76% 29.71 in 10.0 mi SSE 6.9 mph - N/A   Clear
2:35 AM 43.9 °F 39.3 °F 37.0 °F 77% 29.70 in 10.0 mi SSE 8.1 mph - N/A   Clear
2:55 AM 43.9 °F 40.5 °F 36.7 °F 76% 29.70 in 10.0 mi SSE 5.8 mph - N/A   Clear
3:15 AM 45.3 °F 39.7 °F 37.0 °F 73% 29.69 in 10.0 mi SSE 11.5 mph - N/A   Clear
3:35 AM 46.2 °F 40.8 °F 36.9 °F 70% 29.68 in 10.0 mi SSE 11.5 mph - N/A   Clear
3:55 AM 46.4 °F 40.7 °F 36.9 °F 69% 29.67 in 10.0 mi SSE 12.7 mph 16.1 mph N/A   Clear
4:15 AM 47.5 °F - 36.7 °F 66% 29.67 in 10.0 mi SSE 11.5 mph - N/A   Clear
4:35 AM 47.3 °F - 36.9 °F 67% 29.65 in 10.0 mi SSE 12.7 mph 17.3 mph N/A   Clear
4:55 AM 48.2 °F - 36.9 °F 65% 29.63 in 10.0 mi SE 10.4 mph - N/A   Clear
5:15 AM 48.9 °F - 36.9 °F 63% 29.63 in 10.0 mi SSE 11.5 mph - N/A   Clear
5:35 AM 50.0 °F - 36.5 °F 60% 29.63 in 10.0 mi SSE 15.0 mph 20.7 mph N/A   Clear
5:55 AM 50.2 °F - 36.5 °F 59% 29.62 in 10.0 mi SSE 13.8 mph 21.9 mph N/A   Clear
6:15 AM 50.2 °F - 36.5 °F 59% 29.62 in 10.0 mi SSE 17.3 mph 24.2 mph N/A   Clear
6:35 AM 50.0 °F - 36.5 °F 60% 29.62 in 10.0 mi SSE 16.1 mph 24.2 mph N/A   Clear
6:55 AM 50.0 °F - 37.0 °F 61% 29.61 in 10.0 mi SSE 13.8 mph 21.9 mph N/A   Clear
7:15 AM 50.4 °F - 37.6 °F 62% 29.61 in 10.0 mi SSE 16.1 mph 21.9 mph N/A   Clear
7:35 AM 50.4 °F - 38.3 °F 63% 29.60 in 10.0 mi SSE 13.8 mph 19.6 mph N/A   Clear
7:55 AM 51.3 °F - 38.7 °F 62% 29.60 in 10.0 mi SSE 17.3 mph 28.8 mph N/A   Clear
8:15 AM 52.0 °F - 38.8 °F 61% 29.60 in 10.0 mi South 13.8 mph 23.0 mph N/A   Clear
8:35 AM 52.9 °F - 39.2 °F 60% 29.60 in 10.0 mi SSE 19.6 mph 25.3 mph N/A   Scattered Clouds
8:55 AM 53.2 °F - 39.6 °F 60% 29.63 in 10.0 mi South 17.3 mph 23.0 mph N/A   Clear
9:15 AM 53.6 °F - 40.5 °F 61% 29.63 in 10.0 mi South 19.6 mph 26.5 mph N/A   Scattered Clouds
9:35 AM 53.8 °F - 40.5 °F 61% 29.63 in 10.0 mi South 16.1 mph 23.0 mph N/A   Scattered Clouds
9:55 AM 54.3 °F - 41.2 °F 61% 29.62 in 10.0 mi South 18.4 mph 24.2 mph N/A   Scattered Clouds
10:15 AM 54.7 °F - 41.2 °F 60% 29.62 in 10.0 mi South 19.6 mph 25.3 mph N/A   Clear
10:35 AM 55.4 °F - 41.4 °F 59% 29.63 in 10.0 mi South 15.0 mph 24.2 mph N/A   Clear
10:55 AM 55.9 °F - 41.4 °F 58% 29.62 in 10.0 mi South 23.0 mph 28.8 mph N/A   Clear
11:15 AM 56.8 °F - 42.3 °F 58% 29.60 in 10.0 mi South 20.7 mph 29.9 mph N/A   Clear
11:35 AM 57.9 °F - 42.8 °F 57% 29.61 in 10.0 mi South 24.2 mph 31.1 mph N/A   Clear
11:55 AM 57.7 °F - 43.5 °F 59% 29.60 in 10.0 mi South 19.6 mph 28.8 mph N/A   Clear
12:15 PM 58.6 °F - 43.7 °F 58% 29.59 in 10.0 mi South 17.3 mph 26.5 mph N/A   Scattered Clouds
12:35 PM 59.2 °F - 42.8 °F 55% 29.59 in 10.0 mi SSW 19.6 mph 26.5 mph N/A   Mostly Cloudy
12:55 PM 59.4 °F - 40.8 °F 50% 29.58 in 10.0 mi SSW 13.8 mph 28.8 mph N/A   Overcast
1:15 PM 60.3 °F - 41.0 °F 49% 29.57 in 10.0 mi SW 11.5 mph - N/A   Overcast
1:35 PM 61.7 °F - 39.9 °F 45% 29.56 in 10.0 mi SW 10.4 mph - N/A   Mostly Cloudy
1:55 PM 63.9 °F - 39.6 °F 41% 29.57 in 10.0 mi SW 11.5 mph - N/A   Mostly Cloudy
2:15 PM 63.5 °F - 37.2 °F 38% 29.56 in 10.0 mi West 13.8 mph 18.4 mph N/A   Scattered Clouds
2:35 PM 63.0 °F - 34.0 °F 34% 29.56 in 10.0 mi West 11.5 mph 17.3 mph N/A   Clear
2:55 PM 62.6 °F - 30.6 °F 30% 29.56 in 10.0 mi WNW 11.5 mph 17.3 mph N/A   Clear
3:15 PM 63.9 °F - 27.7 °F 26% 29.56 in 10.0 mi West 20.7 mph 25.3 mph N/A   Clear
3:35 PM 63.7 °F - 26.8 °F 25% 29.56 in 10.0 mi West 20.7 mph - N/A   Clear
3:55 PM 63.5 °F - 26.4 °F 25% 29.56 in 10.0 mi West 17.3 mph 27.6 mph N/A   Clear
4:15 PM 62.8 °F - 25.3 °F 24% 29.57 in 10.0 mi West 20.7 mph 32.2 mph N/A   Clear
4:35 PM 62.8 °F - 25.7 °F 24% 29.56 in 10.0 mi WSW 10.4 mph 19.6 mph N/A   Clear
4:55 PM 61.9 °F - 24.8 °F 24% 29.55 in 10.0 mi WSW 16.1 mph 21.9 mph N/A   Clear
5:15 PM 59.0 °F - 24.4 °F 27% 29.57 in 10.0 mi WSW 19.6 mph 25.3 mph N/A   Scattered Clouds
5:35 PM 58.6 °F - 24.4 °F 27% 29.58 in 10.0 mi WSW 8.1 mph - N/A   Clear
5:55 PM 59.4 °F - 24.4 °F 26% 29.57 in 10.0 mi WSW 13.8 mph 20.7 mph N/A   Clear
6:15 PM 59.0 °F - 23.4 °F 25% 29.57 in 10.0 mi WSW 12.7 mph 20.7 mph N/A   Clear
6:35 PM 57.2 °F - 24.3 °F 28% 29.57 in 10.0 mi SW 8.1 mph - N/A   Clear
6:55 PM 54.9 °F - 23.7 °F 30% 29.57 in 10.0 mi SW 8.1 mph - N/A   Clear
7:15 PM 55.0 °F - 24.6 °F 31% 29.59 in 10.0 mi WSW 11.5 mph 20.7 mph N/A   Clear
7:35 PM 54.7 °F - 27.5 °F 35% 29.58 in 10.0 mi WSW 10.4 mph - N/A   Clear
7:55 PM 54.3 °F - 28.2 °F 37% 29.60 in 10.0 mi WSW 9.2 mph 16.1 mph N/A   Clear
8:15 PM 52.5 °F - 29.5 °F 41% 29.60 in 10.0 mi WSW 8.1 mph - N/A   Clear
8:35 PM 51.3 °F - 29.8 °F 44% 29.60 in 10.0 mi SW 9.2 mph - N/A   Clear
8:55 PM 52.3 °F - 31.5 °F 45% 29.60 in 10.0 mi WSW 12.7 mph 21.9 mph N/A   Clear
9:15 PM 50.4 °F - 32.9 °F 51% 29.58 in 10.0 mi WSW 20.7 mph 33.4 mph N/A   Clear
9:35 PM 48.4 °F - 32.5 °F 54% 29.58 in 10.0 mi West 20.7 mph 25.3 mph N/A   Clear
9:55 PM 47.3 °F - 32.9 °F 57% 29.57 in 10.0 mi West 21.9 mph 28.8 mph N/A   Clear
10:15 PM 46.0 °F 39.6 °F 32.9 °F 60% 29.56 in 10.0 mi West 15.0 mph 23.0 mph N/A   Clear
10:35 PM 45.5 °F 38.1 °F 33.4 °F 63% 29.55 in 10.0 mi West 18.4 mph 28.8 mph N/A   Clear
10:55 PM 44.4 °F 38.2 °F 33.8 °F 66% 29.55 in 10.0 mi West 12.7 mph 24.2 mph N/A   Clear
11:15 PM 43.5 °F 36.1 °F 34.5 °F 71% 29.55 in 10.0 mi West 16.1 mph 26.5 mph N/A   Clear
11:35 PM 43.7 °F 36.0 °F 35.1 °F 72% 29.56 in 10.0 mi West 17.3 mph - N/A   Mostly Cloudy
11:55 PM 44.6 °F 37.2 °F 36.0 °F 72% 29.55 in 10.0 mi West 17.3 mph 25.3 mph N/A   Overcast